Weather in Verkhniye Achaluki

Russia / Republic of Ingushetia     43°20′51″N   44°42′07″E
temp.,
°C
wind,
m/s
gust,
m/s
humid.,
%
clouds,
%
prec.,
mm/h
press.,
hPa
HPBL,
m
15 may, sat
sat1500:00+16s22680 0.0 101212
03:00+15s22600 0.0 101211
06:00+16ssw33653 0.0 101341
09:00+24w22475 0.0 1013317
12:00+27n32525 0.0 10121102
15:00+27n325633 0.0 10121587
18:00+20s3578100 2.0 1013112
21:00+17s3273100 3.3 101321
16 may, sun
sun1600:00+16sse227396 0.4 101214
03:00+15sse227221 0.4 101112
06:00+16s11745 0.0 101126
09:00+23nne11540 0.0 1009394
12:00+25ene44532 0.0 1007792
15:00+26ene45490 0.0 10061027
18:00+24nne23674 0.0 100571
21:00+19s226278 0.0 100617
17 may, mon
mon1700:00+18sse234697 0.0 100525
03:00+16s334175 0.0 100522
06:00+17se22545 0.0 100620
09:00+25ene12410 0.0 1005326
12:00+27ene44440 0.0 1005465
15:00+28ne3345100 0.0 1004801
18:00+25nw2264100 0.0 100520
21:00+18sw2371100 2.5 100846
18 may, tue
tue1800:00+15sw47928 0.0 1009179
03:00+16w4888100 0.1 1010265
06:00+15wnw3893100 0.6 1012584
09:00+15w4694100 3.3 1014593
12:00+15sw3391100 0.9 1015320
15:00+16sw3384100 1.9 1015378
18:00+18wsw23775 0.3 1015420
21:00+14sw228579 0.6 101625
19 may, wed
wed1900:00+13nne018638 0.0 101610
03:00+12sw128818 0.0 101711
06:00+14se11820 0.0 101754
09:00+20ne33685 0.0 1016727
12:00+22ene55580 0.0 10151210
15:00+23ene56485 0.0 10141248
18:00+20ene486685 0.0 1014198
21:00+16ese356339 0.0 101475